Погода Пушкинские Горы

Хотите узнать прогноз погоды Пушкинские Горы? Тогда Вам сюда: Погода Пушкинские Горы

Поиск расширенной информации на нашем сайте:

Полезная информация:

Новости сайта



02.01.2020
Опубликован Долгосрочный прогноз погоды по городам России и ближнего зарубежья на январь 2020 года.
Карты: Прогноз на январь и февраль 2020 года, Сравнение прогнозируемой аномалии приземной температуры воздуха на январь 2020 года по разным моделям.




Погода Пушкинские Горы - сегодня

Время (UTC), дата Ветер
(°,м/с) 
Видим.   Явления Облачность Т
(°С)
Тd
(°С)
f(%) Тe
(°С)
Pmin
(гПа)
dP
(гПа)
Po
(мм)
O2
(г/м3)
Тmin Tmax R s Состояние
почвы
12 03.03.21 260 (З) 4{10}  20000 м    9/4 1000 м средняя 
[Sc|Ac trans]
+4.5 -3.3 57 +3  1018.7  -2.5  754  299           
15 03.03.21 250 (З) 20000 м    10/10 1000 м 
[Sc]
+4.6 -1.4 65 +3  1015.4  -3.2  752  298           
18 03.03.21 260 (З) 5-10{10}  20000 м    10/10 600 м 
[Sc]
+4.1 -1.3 68 +2  1012.6  -2.8  750  298    +5.6       
21 03.03.21 260 (З) 4{10}  20000 м    6/6 600 м 
[Sc]
+3.5 +0 78 +2  1009.8  -2.8  748  297           
00 04.03.21 250 (З) 3{10}  20000 м    10/10 600 м 
[Sc]
+1.7 -0.7 84 1007.6  -2.2  746  299           
03 04.03.21 260 (З) 10 км  в посл. час ливневой снег  10/10 300 м кучево-дожд. 
[Cb cap]
+0.1 -0.6 95 -1  1005.9  -1.8  745  300  +0.1    0.7     
06 04.03.21 270 (З) 4000 м  слаб. ливневой снег  10/10 300 м кучево-дожд. 
[Cb cap]
-0.2 -0.6 97 -1  1004.5  -1.4  744  300  -0.2    равномерный
мокрый или
старый снег
100% 
09 04.03.21 350 (С) 20000 м  в посл. час ливневой снег  10/10 300 м кучево-дожд. 
[Cb cap]
-1.1 -3 87 -1  1004.6  0.1  744  301           
12 04.03.21 330 (СЗ) 5-10{10}  4000 м  слаб. ливневой снег  10/10 300 м кучево-дожд. 
[Cb cap]
-0.6 -3.3 82 -4  1005  0.3  744  301           
15 04.03.21 300 (СЗ) 20000 м  в посл. час ливневой снег  9/6 600 м кучево-дожд., средняя 
[Cb cap|Ac trans]
-1.2 -4.8 76 -3  1005.4  0.5  744  302         
18 04.03.21 320 (СЗ) 20000 м  {ливн. осадки}  ясно 
-3.4 -7.2 75 -6  1007.7  2.1  746  305    +1.8     
21 04.03.21 290 (З) 20000 м    ясно 
-6.8 -9.2 83 -6  1009.2  1.2  747  310           
00 05.03.21 180 (Ю) 20000 м    10/10 600 м 
[Sc]
-6.5 -8.5 86 -8  1009.2  0.1  747  309           
03 05.03.21 270 (З) 20000 м  {ливн. осадки}  10/10 300 м кучево-дожд. 
[Cb cap]
-4.7 -6 91 -6  1009.1  747  307  -8.7    0.3     
06 05.03.21 300 (СЗ) 20000 м  {ливн. осадки}  9/9 300 м кучево-дожд. 
[Cb cap]
-4.5 -6.2 88 -4  1010.9  1.8  748  307  -8.7    0.3  равномерный
сухой снег
100% 
09 05.03.21 350 (С) 20000 м  {ливн. осадки}  9/6 600 м кучево-дожд., верхняя 
[Cb cap|Ci fib]
-3.1 -8.1 68 -5  1012.7  1.9  750  306           
12 05.03.21 320 (СЗ) 20000 м  {ливн. осадки}  8/8 600 м кучево-дожд. 
[Cb cap]
-2.6 -10 57 -5  1014.3  1.6  751  306           
15 05.03.21 330 (СЗ) 20000 м    8/8 600 м кучево-дожд. 
[Cb cap]
-4.2 -9.3 68 -5  1016  1.6  752  309      0.3     
18 05.03.21 тихо ()   20000 м    ясно 
-8.9 -12 78 -9  1017.9  1.6  753  315    -1.6  0.3     
21 05.03.21 тихо ()   20000 м    ясно 
-10.2 -11.6 89 -10  1019.2  1.2  754  317           
00 06.03.21 160 (Ю) 20000 м    4/0 средняя 
[Ac trans]
-10.5 -12.1 88 -10  1020.1  0.9  755  317           
03 06.03.21 тихо ()   20000 м    3/0 средняя 
[Ac trans]
-11.8 -13.5 87 -12  1020.6  0.4  755  319  -12.1         
06 06.03.21 200 (Ю) 50000 м    ясно 
-9.9 -12.4 82 -10  1021  0.5  756  317  -13.1      равномерный
сухой снег
100% 
09 06.03.21 270 (З) 20000 м    3/0 верхняя 
[Ci fib]
-2.8 -10.1 57 -5  1019.8  -0.8  755  308           
12 06.03.21 240 (ЮЗ) 20000 м    9/0 верхняя 
[Ci fib]
-0.6 -10.6 47 -3  1016.9  -2.8  753  305           
Время (UTC), дата Ветер
(°,м/с) 
Видим.   Явления Облачность Т
(°С)
Тd
(°С)
f(%) Тe
(°С)
Pmin
(гПа)
dP
(гПа)
Po
(мм)
O2
(г/м3)
Тmin Tmax R s Состояние
почвы

Для получения пояснительной информации подведите курсор к названию столбца.

ПОГОДА Пушкинские Горы - архив

Всё, что Вы хотите узнать о погоде Пушкинские Горы - удобно и подробно!

Выберите нужную дату (начиная с 1 января 2019* года) и нажмите кнопку "Найти".
Будут отображены архивные сводки погоды по пункту Пушкинские Горы, начиная с указанной даты.


Отображать данные в формате CSV (для использования в таблицах Excel)


Внимание! Наш архив погоды предназначен исключительно для личного некоммерческого использования в познавательных целях. Если Вам необходимы официальные справки о состоянии погоды (для производственных, юридических, коммерческих и т.п. целей), обращайтесь в органы Росгидромета.

*Примечание: данная дата относится к архиву по метеостанциям СССР (Россия, СНГ, Балтия).
Архив по метеостанциям Зарубежной Европы и Азии (кроме Китая) хранится 10 дней, по другим регионам земного шара (Китай, Африка, Америка, Австралия, Океания) - 1 день.

Пушкинские Горы - район местоположения метеостанции


Название, широта, долгота, высота метеостанции:
Пушкинские Горы 57°ш. 28.9°д. 108 м над ур. моря [Российская Федерация]

Дополнительная информация

В oтличие oт бoльшинства пoгoдных сайтoв мы публикуем пoдрoбную метеoинфoрмацию в детальнoм прoфессиoнальнoм фoрмате.

Характеристики температуры и влажнoсти вoздуха измеряются на высoте 2 м в тени вдали oт зданий и деревьев.
Скoрoсть ветра измеряется на высoте 10 м (на урoвне рoста челoвека скoрoсть ветра ниже в 1.5-2 раза). Если метеoстанция нахoдится в гoрoде или в лесу, тo скoрoсть ветра занижена на 2-4 м/с пo сравнению с oткрытым местoм. Скoрoсть ветра над акватoриями крупных рек и oзёр, а также на вершинах хoлмoв на 2-5 м/с выше, чем в oбычных услoвиях.
Атмoсфернoе давление в разных тoчках местнoсти мoжет значительнo oтличаться oт давления на метеoстанции, в зависимoсти oт услoвий рельефа (при пoдъёме на 10 м давление пoнижается примернo на 1 мм рт.ст.).